Meteo pe oră la Abanosimovka

Astăzi, 27 Iulie, Marţi

Timp Temperatura Precipitaţii Vânt Presiune Umiditate
00:00 +20°C° 0 mm 2 m/s 753 mmHg 54%
01:00 +20°C° 0 mm 2 m/s 753 mmHg 56%
02:00 +19°C° 0 mm 2 m/s 753 mmHg 58%
03:00 +18°C° 0 mm 2 m/s 753 mmHg 60%
04:00 +19°C° 0 mm 2 m/s 753 mmHg 62%
05:00 +19°C° 0 mm 2 m/s 753 mmHg 64%
06:00 +19°C° 0 mm 2 m/s 753 mmHg 66%
07:00 +21°C° 0 mm 2 m/s 753 mmHg 62%
08:00 +23°C° 0 mm 1 m/s 753 mmHg 58%
09:00 +25°C° 0 mm 1 m/s 753 mmHg 55%
10:00 +26°C° 0 mm 2 m/s 753 mmHg 50%
11:00 +28°C° 0 mm 2 m/s 753 mmHg 45%
12:00 +29°C° 0 mm 2 m/s 753 mmHg 40%
13:00 +29°C° 0 mm 2 m/s 752 mmHg 41%
14:00 +29°C° 0 mm 2 m/s 752 mmHg 41%
15:00 +29°C° 0 mm 2 m/s 752 mmHg 42%
16:00 +28°C° 0 mm 2 m/s 752 mmHg 45%
17:00 +27°C° 0 mm 2 m/s 751 mmHg 47%
18:00 +27°C° 0 mm 1 m/s 751 mmHg 50%
19:00 +25°C° 0 mm 1 m/s 751 mmHg 55%
20:00 +24°C° 0 mm 1 m/s 751 mmHg 60%
21:00 +22°C° 0 mm 1 m/s 751 mmHg 65%
22:00 +21°C° 0 mm 1 m/s 751 mmHg 68%
23:00 +21°C° 0 mm 1 m/s 751 mmHg 71%

Mâine, 28 Iulie, Miercuri

Timp Temperatura Precipitaţii Vânt Presiune Umiditate
00:00 +20°C° 0 mm 1 m/s 751 mmHg 73%
01:00 +20°C° 0 mm 1 m/s 751 mmHg 75%
02:00 +19°C° 0 mm 1 m/s 751 mmHg 76%
03:00 +19°C° 0 mm 1 m/s 751 mmHg 77%
04:00 +19°C° 0 mm 1 m/s 751 mmHg 76%
05:00 +20°C° 0 mm 1 m/s 751 mmHg 75%
06:00 +20°C° 0 mm 1 m/s 750 mmHg 74%
07:00 +22°C° 0 mm 1 m/s 750 mmHg 67%
08:00 +24°C° 0 mm 1 m/s 750 mmHg 60%
09:00 +26°C° 0 mm 1 m/s 750 mmHg 53%
10:00 +28°C° 0 mm 1 m/s 750 mmHg 49%
11:00 +29°C° 0 mm 1 m/s 750 mmHg 45%
12:00 +30°C° 0 mm 1 m/s 750 mmHg 40%
13:00 +30°C° 0 mm 1 m/s 749 mmHg 39%
14:00 +30°C° 0 mm 1 m/s 749 mmHg 38%
15:00 +31°C° 0 mm 1 m/s 748 mmHg 37%
16:00 +29°C° 0 mm 2 m/s 748 mmHg 44%
17:00 +28°C° 0 mm 3 m/s 748 mmHg 50%
18:00 +26°C° 0 mm 4 m/s 748 mmHg 57%
19:00 +25°C° 0 mm 3 m/s 748 mmHg 61%
20:00 +24°C° 0 mm 2 m/s 748 mmHg 65%
21:00 +23°C° 0 mm 1 m/s 748 mmHg 69%
22:00 +23°C° 0 mm 2 m/s 747 mmHg 68%
23:00 +23°C° 0 mm 2 m/s 747 mmHg 67%

Poimâine, 29 Iulie, Joi

Timp Temperatura Precipitaţii Vânt Presiune Umiditate
00:00 +22°C° 0 mm 3 m/s 746 mmHg 66%
01:00 +22°C° 0 mm 3 m/s 746 mmHg 65%
02:00 +22°C° 0 mm 3 m/s 746 mmHg 64%
03:00 +22°C° 0 mm 3 m/s 746 mmHg 62%
04:00 +21°C° 0 mm 3 m/s 745 mmHg 63%
05:00 +21°C° 0 mm 3 m/s 745 mmHg 64%
06:00 +21°C° 0 mm 3 m/s 745 mmHg 65%
07:00 +22°C° 0.1 mm 4 m/s 744 mmHg 63%
08:00 +25°C° 0.1 mm 4 m/s 744 mmHg 62%
09:00 +26°C° 0.1 mm 5 m/s 744 mmHg 60%
10:00 +27°C° 0 mm 5 m/s 744 mmHg 56%
11:00 +29°C° 0 mm 6 m/s 744 mmHg 52%
12:00 +30°C° 0 mm 6 m/s 743 mmHg 49%
13:00 +30°C° 0 mm 6 m/s 743 mmHg 48%
14:00 +30°C° 0 mm 6 m/s 743 mmHg 47%
15:00 +30°C° 0 mm 5 m/s 743 mmHg 46%
16:00 +30°C° 0 mm 5 m/s 743 mmHg 48%
17:00 +29°C° 0 mm 4 m/s 743 mmHg 50%
18:00 +29°C° 0 mm 4 m/s 743 mmHg 52%
19:00 +27°C° 0 mm 3 m/s 743 mmHg 57%
20:00 +26°C° 0 mm 3 m/s 743 mmHg 63%
21:00 +24°C° 0 mm 2 m/s 743 mmHg 68%
22:00 +24°C° 0 mm 2 m/s 743 mmHg 70%
23:00 +23°C° 0 mm 1 m/s 743 mmHg 72%

30 Iulie, Vineri

Timp Temperatura Precipitaţii Vânt Presiune Umiditate
00:00 +23°C° 0 mm 1 m/s 743 mmHg 73%
01:00 +23°C° 0 mm 1 m/s 743 mmHg 75%
02:00 +22°C° 0 mm 1 m/s 743 mmHg 77%
03:00 +21°C° 0 mm 2 m/s 743 mmHg 78%
04:00 +21°C° 0 mm 2 m/s 743 mmHg 78%
05:00 +22°C° 0 mm 1 m/s 743 mmHg 77%
06:00 +23°C° 0 mm 1 m/s 743 mmHg 76%
07:00 +25°C° 0 mm 2 m/s 743 mmHg 70%
08:00 +26°C° 0 mm 2 m/s 744 mmHg 63%
09:00 +28°C° 0 mm 2 m/s 744 mmHg 56%
10:00 +29°C° 0 mm 2 m/s 744 mmHg 52%
11:00 +30°C° 0 mm 2 m/s 744 mmHg 47%
12:00 +31°C° 0 mm 2 m/s 744 mmHg 43%
13:00 +31°C° 0 mm 2 m/s 743 mmHg 42%
14:00 +32°C° 0 mm 2 m/s 743 mmHg 40%
15:00 +32°C° 0 mm 2 m/s 743 mmHg 39%
16:00 +32°C° 0 mm 2 m/s 743 mmHg 42%
17:00 +31°C° 0 mm 2 m/s 743 mmHg 45%
18:00 +30°C° 0 mm 2 m/s 743 mmHg 49%
19:00 +29°C° 0 mm 1 m/s 743 mmHg 53%
20:00 +27°C° 0 mm 1 m/s 743 mmHg 56%
21:00 +26°C° 0 mm 1 m/s 743 mmHg 60%
22:00 +25°C° 0.1 mm 1 m/s 743 mmHg 63%
23:00 +24°C° 0.1 mm 1 m/s 743 mmHg 66%

31 Iulie, Sâmbătă

Timp Temperatura Precipitaţii Vânt Presiune Umiditate
00:00 +24°C° 0.1 mm 1 m/s 744 mmHg 69%
01:00 +24°C° 0 mm 1 m/s 744 mmHg 69%
02:00 +23°C° 0 mm 1 m/s 744 mmHg 70%
03:00 +23°C° 0 mm 1 m/s 744 mmHg 71%
04:00 +23°C° 0 mm 1 m/s 744 mmHg 71%
05:00 +24°C° 0 mm 1 m/s 743 mmHg 72%
06:00 +24°C° 0 mm 1 m/s 743 mmHg 72%
07:00 +25°C° 0.1 mm 1 m/s 743 mmHg 68%
08:00 +27°C° 0.1 mm 2 m/s 744 mmHg 63%
09:00 +28°C° 0.1 mm 2 m/s 744 mmHg 59%
10:00 +29°C° 0 mm 2 m/s 743 mmHg 55%
11:00 +31°C° 0 mm 2 m/s 743 mmHg 51%
12:00 +33°C° 0 mm 3 m/s 743 mmHg 47%
13:00 +31°C° 0.1 mm 3 m/s 743 mmHg 50%
14:00 +30°C° 0.1 mm 3 m/s 742 mmHg 53%
15:00 +29°C° 0.1 mm 3 m/s 742 mmHg 56%
16:00 +30°C° 0 mm 3 m/s 742 mmHg 54%
17:00 +30°C° 0 mm 2 m/s 742 mmHg 52%
18:00 +30°C° 0 mm 1 m/s 742 mmHg 50%
19:00 +29°C° 0.2 mm 2 m/s 742 mmHg 59%
20:00 +27°C° 0.2 mm 2 m/s 743 mmHg 68%
21:00 +25°C° 0.2 mm 3 m/s 743 mmHg 76%
22:00 +24°C° 0 mm 3 m/s 743 mmHg 78%
23:00 +23°C° 0 mm 2 m/s 743 mmHg 80%

1 August, Duminică

Timp Temperatura Precipitaţii Vânt Presiune Umiditate
00:00 +21°C° 0 mm 2 m/s 743 mmHg 81%
01:00 +21°C° 0 mm 2 m/s 743 mmHg 81%
02:00 +21°C° 0 mm 2 m/s 743 mmHg 80%
03:00 +22°C° 0 mm 1 m/s 743 mmHg 79%
04:00 +22°C° 0 mm 1 m/s 743 mmHg 78%
05:00 +21°C° 0 mm 2 m/s 743 mmHg 77%
06:00 +21°C° 0 mm 2 m/s 743 mmHg 76%
07:00 +24°C° 0 mm 2 m/s 744 mmHg 70%
08:00 +25°C° 0 mm 2 m/s 744 mmHg 64%
09:00 +27°C° 0 mm 2 m/s 744 mmHg 59%
10:00 +28°C° 0 mm 2 m/s 744 mmHg 54%
11:00 +29°C° 0 mm 2 m/s 745 mmHg 50%
12:00 +30°C° 0 mm 2 m/s 745 mmHg 46%
13:00 +31°C° 0 mm 2 m/s 745 mmHg 43%
14:00 +33°C° 0 mm 3 m/s 745 mmHg 41%
15:00 +34°C° 0 mm 3 m/s 745 mmHg 39%
16:00 +33°C° 0 mm 3 m/s 745 mmHg 41%
17:00 +31°C° 0 mm 2 m/s 745 mmHg 42%
18:00 +31°C° 0 mm 2 m/s 745 mmHg 44%
19:00 +29°C° 0 mm 2 m/s 745 mmHg 45%
20:00 +28°C° 0 mm 2 m/s 745 mmHg 45%
21:00 +27°C° 0 mm 2 m/s 745 mmHg 46%
22:00 +26°C° 0 mm 2 m/s 745 mmHg 47%
23:00 +25°C° 0 mm 2 m/s 746 mmHg 48%
Arată mai mult

Formular de consimțământ

Meteoprog și furnizorii noștri de servicii pot stoca și accesa date personale, precum cookies, identificatori de dispozitiv sau alte tehnologii similare pe dispozitivul dumneavoastră și procesa astfel de date pentru a personaliza conținutul și reclamele, dar și pentru a oferi caracteristici de social media și pentru a analiza traficul.

  • Stocarea și/sau accesarea informațiilor pe dispozitivul dumneavoastră

    Cookies, identificatori de dispozitiv sau alte informații pot fi stocate sau accesate pe dispozitiv în scopurile indicate mai sus.

  • Reclame și conținut personalizat, evaluarea reclamelor și a conținutului, informații despre audiențe și dezvoltarea produselor

    Reclamele și conținutul pot fi personalizate pe baza unui profil. Pot fi adăugate date suplimentare pentru a personaliza mai bine reclamele și conținutul. Performanța reclamelor și conținutului poate fi măsurată. Pot fi obținute informații despre utilizatorii care au văzut reclamele și conținutul. Aceste date pot fi utilizate pentru a dezvolta sau îmbunătăți experiența utilizatorilor, sistemele și software-ul.

Dând clic pe ‘Sunt de acord’, permiteți utilizarea cookie-urilor menționate, a identificatorilor de dispozitiv, balizelor web sau altor tehnologii similare. Setările pot fi modificate din browser-ul dispozitivului dumneavoastră.

În anumite scopuri, interesele legitime pot prima asupra consimțământului. Puteți citi mai multe informații în acest sens în Politica privind Confidențialitatea Datelor și Cookie.